Location: Jabiru
(12.6667°S, 132.8333°E)
Time: 08:30:07
(UTC+09:30)

Envisat - Pass Details

Date: 22 October 2019
Orbit: 764 x 766 km, 98.1° (Epoch: 14 November)

Event Time Altitude Azimuth Distance (km) Brightness Sun altitude
Rises 18:47:59 0° 156° (SSE) 3,243 6.1 -3.5°
Reaches altitude 10° 18:50:26 10° 148° (SSE) 2,312 5.3 -4.1°
Maximum altitude 18:55:11 40° 79° (E) 1,122 3.4 -5.2°
Drops below altitude 10° 18:59:54 10° 11° (N) 2,293 5.2 -6.4°
Sets 19:02:19 0° 3° (N) 3,213 6.1 -6.9°
